Wind_Speed
9 8 7 6 6 7 7 8 7 6 6 5 5 4 5 7 8 8 10 12 15 16 17 18 17 17 18 20 23 20 18 18 24 24 29 29 28 25 25 25 25 21 18
10 10 10 11 12 12 12 12 10 9 9 9 10 11 12 12 12 14 15 15 17 19 18 17 16 17 18 19 22 24 23 19 25 24 25 27 26 23 23 25 24 20 16
20 17 17 17 16 15 16 16 15 16 16 16 15 13 14 17 19 20 21 20 21 17 15 15 15 15 16 19 21 23 25 26 26 20 25 24 25 22 21 24 24 20 16
21 19 20 20 19 18 19 20 21 22 23 23 20 18 18 21 23 23 21 22 22 19 20 17 15 17 19 18 22 25 24 23 25 22 26 27 25 22 19 22 23 19 13
28 26 23 22 22 22 23 25 26 29 26 26 24 18 22 20 21 20 23 25 25 22 21 19 21 23 24 24 24 27 30 23 22 26 25 27 27 24 20 21 21 18 15
28 27 26 27 27 28 29 28 26 29 28 36 34 27 23 30 25 26 24 23 27 27 25 24 26 29 30 30 30 30 33 30 23 24 25 27 26 26 21 22 22 18 13
33 34 32 29 26 36 33 36 39 43 42 31 32 27 26 23 24 25 26 27 27 28 32 36 35 34 35 35 35 35 37 37 29 25 24 27 24 28 23 20 20 18 12
24 21 20 20 29 33 36 29 32 31 31 37 32 26 26 25 26 27 32 33 35 37 40 43 43 42 41 42 41 38 37 39 36 25 24 25 24 27 26 19 19 18 14
8 9 9 8 6 11 16 19 22 23 28 29 30 32 34 35 39 41 42 44 47 46 46 47 48 49 47 47 47 44 41 39 37 27 23 24 23 23 27 18 18 16 14
13 12 13 13 15 16 18 22 25 30 33 37 39 43 46 48 47 47 48 49 50 48 49 50 50 52 50 48 51 46 43 37 36 29 23 24 22 22 25 17 17 15 12
16 17 18 19 20 22 25 28 32 36 39 42 46 48 49 50 52 51 50 51 52 52 52 50 50 49 47 45 44 44 38 35 34 30 20 22 24 20 23 16 15 14 9
20 22 24 27 29 31 32 31 32 35 38 40 43 44 45 46 47 48 47 47 48 51 50 49 48 46 42 40 40 42 38 34 34 29 23 22 23 20 22 16 15 15 9
24 26 28 30 31 32 34 34 34 34 36 37 39 40 40 41 41 42 43 43 41 41 43 44 43 39 31 28 28 33 34 35 30 32 22 21 18 20 24 20 17 15 12
31 33 34 34 34 35 36 35 34 35 37 39 40 41 40 39 38 39 40 40 41 41 39 39 38 33 28 27 30 29 24 27 32 35 27 20 20 24 24 20 18 16 14
32 32 32 33 34 34 34 35 36 37 38 38 38 39 39 38 37 39 39 38 38 42 45 43 43 42 42 40 35 27 25 25 30 29 31 25 27 23 25 24 20 19 17
31 33 33 34 35 37 38 39 38 38 38 36 35 38 38 37 37 36 36 32 29 32 45 48 46 45 45 44 43 35 28 26 29 30 35 32 29 27 27 27 22 21 19
32 33 35 36 38 41 41 41 41 38 35 34 33 34 35 35 33 31 29 29 26 26 29 41 50 48 47 49 49 41 31 26 27 33 37 33 32 32 29 29 26 21 23
32 33 36 38 39 39 39 39 39 38 36 31 28 30 31 32 32 34 32 29 27 29 30 29 28 33 38 40 39 35 27 26 28 32 36 36 36 36 36 32 30 26 24
33 34 36 37 37 37 38 37 35 34 33 32 31 24 23 28 31 31 31 32 34 33 31 29 28 28 30 31 29 24 21 24 28 32 36 38 40 40 42 37 33 31 27
30 30 32 33 34 34 35 34 32 31 31 30 28 26 24 26 27 26 28 31 35 37 36 35 32 30 31 28 27 21 23 22 29 33 36 33 38 40 45 42 40 36 33
28 28 28 29 30 31 32 30 28 27 28 27 27 26 27 31 31 29 30 30 32 33 29 27 35 30 31 31 26 23 26 24 26 31 38 32 37 45 45 43 40 38 33
27 28 29 29 29 29 29 27 27 29 30 32 32 29 30 30 31 32 32 30 30 31 29 31 30 27 35 32 30 31 28 22 25 29 31 35 35 45 44 49 44 43 34
26 28 31 30 30 28 27 28 29 30 32 32 33 32 32 32 33 33 34 33 32 31 29 29 29 27 26 27 28 31 28 24 29 30 31 30 30 41 38 37 39 43 40
26 27 30 28 26 24 22 27 28 31 33 33 30 32 33 32 31 28 26 27 26 27 25 24 23 25 29 31 34 30 38 32 32 33 32 31 31 30 34 42 42 40 40
24 28 25 23 19 20 22 25 27 30 31 32 33 32 30 28 28 27 27 26 24 22 24 23 24 23 20 24 27 31 32 31 33 33 33 34 34 35 32 27 37 39 44
19 23 22 20 22 23 26 29 30 30 31 29 24 24 24 27 27 25 26 24 19 21 23 25 26 27 28 25 26 34 34 31 32 33 34 36 38 37 38 32 42 45 38
Wind_Direction
239 243 246 239 239 233 222 223 223 226 226 245 274 285 296 304 309 322 328 328 329 329 328 330 332 328 327 321 313 303 319 328 328 338 334 340 336 341 344 340 337 331 325
240 241 244 240 241 239 243 243 242 254 263 271 281 287 290 292 298 305 311 312 318 317 318 322 329 328 330 330 321 329 333 300 329 326 331 335 333 335 340 339 340 329 322
247 235 228 232 237 242 246 249 250 252 258 266 273 280 286 285 288 295 302 307 313 307 311 313 318 328 334 335 323 328 324 321 335 331 328 336 332 331 340 341 339 332 325
251 241 243 245 246 250 253 256 259 262 259 258 259 266 281 284 282 286 292 293 294 296 300 304 315 325 333 338 337 334 332 325 320 322 322 331 327 330 340 336 341 333 332
260 267 264 266 268 262 263 261 264 264 263 268 274 275 279 284 292 294 293 293 289 291 291 298 306 312 318 324 331 331 331 328 319 309 316 320 324 329 334 333 341 336 339
258 261 254 258 259 261 266 262 262 273 284 274 296 282 277 282 285 282 280 283 288 288 289 294 298 302 305 311 316 321 323 322 320 309 309 314 320 324 327 328 337 338 341
258 260 261 264 262 265 276 271 259 274 259 283 277 282 288 287 285 285 282 280 281 284 291 295 293 293 295 299 304 311 314 316 313 309 303 306 314 314 318 321 327 328 328
269 278 283 281 263 263 261 254 255 252 247 256 266 269 271 271 273 276 279 280 281 283 284 286 285 286 287 292 295 300 302 304 304 304 297 301 306 309 308 316 318 319 316
280 293 303 305 289 263 254 252 255 261 260 263 266 268 268 268 279 281 280 277 279 279 278 277 279 281 286 290 291 294 294 294 294 296 290 289 294 300 300 307 306 309 311
299 294 289 286 282 281 275 275 271 268 267 271 274 275 274 273 278 280 281 280 280 279 278 278 278 280 283 283 286 288 290 288 287 287 278 279 284 287 289 295 295 303 311
288 287 285 283 281 278 277 276 275 274 273 272 271 271 272 272 274 274 273 273 275 277 277 277 277 278 279 279 279 282 282 279 279 279 266 269 273 277 280 280 283 291 296
283 289 293 295 294 291 287 282 277 275 274 273 273 274 274 275 275 274 272 271 272 273 274 274 275 276 278 276 272 270 271 271 269 266 265 255 268 265 272 262 262 274 271
289 293 294 290 287 286 286 286 284 283 284 285 285 285 283 283 282 283 281 278 277 276 276 275 278 284 287 282 271 264 263 262 262 263 252 247 260 253 256 247 243 253 249
297 298 295 293 293 294 293 291 289 290 293 295 295 294 292 290 288 285 282 282 279 274 272 272 273 274 272 271 282 278 273 262 240 257 242 242 236 248 254 247 238 235 234
291 290 290 292 293 293 293 294 293 293 296 297 297 296 295 293 291 287 282 273 268 269 268 266 270 274 275 273 277 273 271 255 244 247 228 237 239 254 247 246 233 221 225
289 289 289 290 293 295 297 297 297 299 300 299 299 298 296 296 295 291 286 284 281 269 261 263 266 269 274 279 282 281 277 260 245 237 239 236 238 245 242 238 229 220 218
291 291 290 291 293 296 297 297 296 296 298 297 296 294 293 295 295 293 288 283 280 280 275 264 261 263 266 271 276 281 279 266 247 235 232 227 233 245 243 235 239 222 215
293 293 292 292 293 294 294 295 295 297 299 297 293 290 287 285 283 284 287 288 286 282 283 282 274 270 270 269 271 273 269 256 243 237 227 226 229 229 237 235 235 234 218
292 292 292 292 293 294 295 295 295 297 298 298 298 293 286 283 283 284 283 282 282 282 281 276 278 272 270 271 259 256 257 248 240 234 228 231 227 224 229 233 235 237 228
297 299 299 299 299 299 297 296 295 294 292 292 294 299 298 290 289 290 291 285 280 280 278 276 276 277 276 269 254 245 247 244 236 237 233 230 229 224 225 228 232 231 230
305 307 308 309 307 303 300 297 298 294 293 295 300 301 299 296 296 297 292 285 285 283 282 283 266 268 264 263 264 244 246 243 242 240 234 230 233 232 228 226 232 233 235
307 308 309 309 310 307 301 300 295 295 295 297 299 300 297 303 297 292 297 289 282 284 283 282 282 267 265 250 246 250 242 240 239 239 243 237 230 222 234 221 224 231 226
311 318 317 314 309 305 297 291 294 289 289 294 297 299 299 298 298 293 296 292 281 284 279 279 275 266 253 252 263 260 259 255 245 234 231 245 242 246 236 241 229 224 219
317 319 320 318 317 316 307 305 300 294 294 294 296 299 303 299 302 304 303 300 285 280 270 272 275 281 265 255 262 250 249 250 252 239 229 234 239 237 230 224 225 210 218
322 325 330 331 331 327 321 314 313 312 305 300 291 292 295 297 301 303 303 308 288 266 262 265 267 272 277 273 259 243 243 253 253 249 240 240 234 229 220 215 212 202 217
316 323 333 337 332 321 316 318 317 316 315 310 300 297 296 301 300 297 300 300 296 284 262 269 264 267 275 273 258 254 262 259 251 251 242 237 238 234 227 231 205 211 217
Height
3201 3201 3202 3203 3205 3206 3208 3210 3211 3213 3214 3214 3214 3213 3212 3211 3210 3209 3208 3206 3204 3203 3202 3200 3198 3196 3194 3191 3190 3187 3188 3185 3177 3172 3171 3165 3160 3156 3152 3148 3143 3137 3133
3199 3200 3201 3202 3203 3205 3206 3208 3209 3211 3212 3212 3212 3211 3211 3210 3208 3206 3204 3202 3201 3199 3198 3196 3194 3192 3190 3188 3187 3183 3179 3179 3175 3170 3166 3162 3158 3154 3149 3145 3140 3136 3131
3194 3194 3196 3196 3198 3200 3202 3204 3205 3206 3206 3206 3206 3207 3207 3205 3203 3201 3199 3198 3196 3194 3192 3191 3189 3187 3186 3183 3180 3178 3175 3173 3170 3165 3163 3159 3157 3152 3147 3142 3138 3132 3129
3187 3189 3191 3193 3196 3197 3198 3199 3200 3198 3197 3197 3196 3196 3197 3197 3195 3194 3192 3190 3190 3188 3187 3186 3185 3183 3182 3179 3176 3173 3170 3166 3163 3162 3160 3158 3154 3150 3144 3140 3136 3131 3126
3184 3186 3190 3192 3193 3194 3196 3197 3196 3193 3194 3189 3177 3183 3190 3189 3189 3188 3187 3184 3185 3183 3182 3181 3180 3178 3177 3175 3171 3168 3166 3162 3160 3158 3155 3153 3150 3146 3141 3138 3134 3129 3124
3182 3183 3185 3185 3189 3191 3191 3192 3194 3193 3192 3183 3186 3185 3183 3181 3184 3182 3180 3179 3178 3177 3176 3174 3173 3171 3169 3169 3166 3164 3162 3159 3156 3152 3149 3146 3145 3143 3138 3134 3129 3127 3123
3178 3178 3178 3180 3181 3181 3181 3186 3188 3184 3184 3184 3183 3180 3177 3176 3177 3176 3175 3173 3172 3170 3169 3168 3166 3163 3161 3161 3161 3157 3154 3151 3150 3146 3144 3141 3140 3138 3136 3132 3127 3124 3122
3169 3169 3169 3169 3169 3171 3172 3174 3173 3172 3172 3172 3173 3173 3172 3172 3171 3170 3167 3165 3163 3161 3160 3159 3156 3155 3153 3152 3151 3150 3148 3145 3143 3141 3138 3135 3134 3133 3131 3128 3123 3121 3120
3164 3165 3166 3166 3166 3165 3165 3165 3165 3164 3165 3165 3165 3166 3164 3163 3161 3159 3156 3154 3152 3150 3149 3148 3146 3143 3143 3141 3139 3139 3138 3137 3135 3134 3132 3131 3129 3128 3126 3125 3121 3118 3117
3158 3159 3160 3160 3161 3161 3160 3160 3160 3159 3158 3157 3156 3156 3154 3151 3150 3148 3145 3141 3138 3138 3136 3134 3133 3130 3131 3131 3126 3127 3127 3127 3127 3126 3126 3124 3123 3123 3122 3122 3119 3116 3115
3153 3154 3154 3155 3155 3154 3154 3153 3152 3150 3148 3147 3145 3144 3141 3139 3137 3134 3133 3128 3124 3122 3120 3119 3117 3117 3117 3117 3116 3114 3117 3116 3116 3117 3118 3117 3117 3117 3116 3118 3116 3113 3113
3148 3147 3147 3146 3144 3142 3141 3141 3140 3138 3136 3134 3132 3130 3127 3125 3122 3118 3116 3113 3110 3106 3105 3104 3102 3102 3104 3103 3103 3103 3104 3105 3106 3107 3109 3110 3110 3111 3111 3112 3112 3110 3109
3142 3141 3140 3138 3136 3133 3131 3129 3127 3124 3121 3119 3116 3114 3112 3109 3106 3103 3100 3097 3096 3095 3092 3090 3090 3089 3090 3090 3090 3090 3092 3094 3095 3097 3101 3102 3104 3104 3103 3105 3106 3106 3105
3131 3131 3128 3126 3124 3121 3119 3116 3114 3112 3108 3105 3102 3099 3096 3094 3092 3089 3086 3084 3083 3082 3081 3080 3079 3080 3081 3082 3082 3083 3083 3084 3087 3088 3092 3095 3096 3096 3096 3099 3101 3101 3102
3123 3121 3119 3116 3114 3111 3109 3106 3103 3101 3097 3092 3089 3085 3082 3080 3078 3075 3072 3072 3070 3069 3068 3068 3068 3068 3069 3072 3074 3074 3074 3074 3075 3079 3083 3087 3089 3090 3090 3093 3095 3096 3098
3113 3111 3109 3106 3104 3100 3097 3094 3092 3088 3085 3081 3077 3072 3070 3067 3064 3061 3058 3056 3057 3057 3056 3055 3056 3057 3057 3057 3059 3063 3065 3065 3066 3069 3071 3077 3079 3082 3084 3086 3088 3090 3093
3104 3102 3099 3096 3093 3089 3086 3082 3079 3079 3076 3072 3069 3066 3062 3058 3054 3050 3048 3047 3046 3046 3046 3045 3046 3046 3046 3045 3047 3050 3053 3055 3056 3057 3061 3065 3070 3074 3076 3078 3081 3084 3087
3094 3091 3088 3086 3083 3079 3076 3073 3070 3066 3063 3063 3062 3057 3054 3049 3044 3041 3040 3039 3039 3037 3036 3035 3035 3034 3034 3034 3035 3039 3041 3043 3044 3046 3050 3054 3058 3064 3066 3069 3073 3076 3080
3085 3082 3079 3075 3072 3069 3065 3062 3059 3056 3053 3049 3048 3048 3045 3040 3036 3034 3033 3031 3029 3028 3027 3025 3025 3026 3026 3025 3025 3027 3030 3032 3035 3036 3039 3043 3047 3052 3056 3060 3065 3069 3072
3076 3073 3069 3065 3061 3058 3055 3052 3049 3046 3043 3041 3039 3036 3034 3031 3029 3027 3024 3021 3018 3017 3017 3016 3016 3017 3017 3018 3017 3018 3020 3021 3025 3026 3029 3033 3037 3041 3047 3050 3056 3061 3064
3067 3064 3060 3056 3052 3048 3045 3042 3040 3037 3035 3032 3030 3028 3024 3019 3017 3016 3014 3012 3009 3007 3006 3005 3004 3006 3007 3008 3009 3009 3010 3013 3015 3018 3020 3023 3027 3033 3036 3043 3048 3053 3058
3059 3056 3052 3048 3045 3041 3037 3034 3032 3029 3027 3024 3021 3019 3015 3011 3007 3004 3003 3000 2999 2997 2996 2994 2993 2994 2996 2997 2997 2998 2999 3002 3006 3009 3012 3015 3015 3020 3022 3033 3036 3043 3050
3052 3048 3044 3040 3036 3033 3030 3027 3024 3021 3018 3015 3011 3008 3005 3002 2998 2995 2992 2989 2988 2987 2986 2984 2983 2983 2985 2989 2990 2991 2992 2994 2997 2999 3002 3004 3009 3011 3013 3014 3013 3025 3040
3046 3042 3038 3033 3028 3024 3022 3019 3017 3013 3009 3005 3003 3000 2995 2992 2989 2985 2982 2979 2977 2976 2976 2977 2975 2974 2975 2977 2980 2981 2986 2988 2989 2989 2991 2994 3000 3004 3007 3012 3012 3016 3031
3041 3037 3032 3027 3023 3021 3018 3014 3009 3004 3000 2995 2992 2990 2987 2983 2981 2978 2975 2971 2968 2968 2967 2968 2967 2967 2967 2966 2967 2968 2971 2974 2976 2978 2980 2984 2989 2995 3000 3003 3006 3004 3021
3037 3034 3028 3024 3020 3016 3012 3006 3002 2997 2992 2987 2984 2981 2978 2975 2972 2970 2967 2964 2961 2959 2959 2960 2959 2958 2958 2960 2960 2960 2960 2962 2966 2968 2970 2974 2978 2983 2989 2988 2999 3002 3013